DECAYED

STARLINK-1767, 46345 (Decayed)

Orbit data source: Space-Track

STARLINK-1767, 46345 was a payload satellite owned by SpaceX/Seattle (US) in LEO that was launched on Thu, 03 Sep 2020 UTC via an FALCON 9 launch vehicle from the Air Force Eastern Test Range (AFETR). Payload-class satellites include a variety of spacecraft equipped with specific instruments for various scientific and technological missions. These include communications satellites like Starlink; space stations such as the ISS; scientific satellites like the Hubble; Earth observation satellites from companies like Planet Labs, Umbra, and HawkEye 360; GPS; miniature CubeSats for education and research; and military/defense satellites.

Not visible in the next 10 days
Identifier
46345, 2020-062W
Orbit
Decayed
Country
Flag of USUS
Related business
Manufacturer
SpaceX/Seattle
Mission
Decayed Commercial Communications
Bus & Motor
STARLINK, Unknown motor
Mass
260 kg wet, ~248 kg dry
Launch date (UTC)
2020-09-03 (6 years ago)
Launch vehicle
FALCON 9
Launch site
Air Force Eastern Test Range (AFETR)
Object type
Payload
Rocket body
Debris
Shape & HBR
Box + 1 Pan, 10.1 m
Radar Cross Section
13.562 m², Large (>1 m²)

Expand to show TLE details & history
Last TLE update: 7 months ago

TLE from 7 months ago
0 STARLINK-1767
1 46345U 20062W   26037.56792635  .06565475  12231-4  10147-2 0  9999
2 46345  53.0151  86.6085 0003973 345.8428  14.2503 16.33275661300590
Epoch: 2026-02-06T13:37Z
TLE epoch observation values (Epoch: 2026-02-06T13:37:48.836Z)
Latitude
-0.00005°
Longitude
105.45104°
Altitude
182.148 km
Speed
7.8 km/s
True Right ascension
05h 46m 26s
True Declination
0° 00' 00"
Sunlit
Object was in full shadow at epoch
Visualization orbit readout
Latitude
Unknown
Longitude
Unknown
Altitude
Unknown
Speed
Unknown
Apparent Right ascension
Unknown
Apparent Declination
Unknown
Sunlit
N/A
Visualization observer readout
Local Sidereal Time
21:12:55
Azimuth
Unknown
Elevation
Unknown
Doppler factor
Unknown
Orbital elements
Apogee altitude
186.651 km
Perigee altitude
181.436 km
Semi-major axis
6,562.18 km
Eccentricity
0.0004
Inclination
53.0151°
RAAN
86.6085°
Arg. of periapsis
345.8428°
True anomaly
14.26151°
Mean anomaly
14.2503°
Eccentric anomaly
14.25591°
Mean motion
4.08292 °/min
Orbital period
88.17 mins
BSTAR
0.0010147
Loading maneuver chart data...
Computing Atmospheric mass density...

Documentation

Showing up to 5 results
|